Weather Roundup
Issued by NWS Chicago, IL

Home | Current Version | Previous Version | Graphics & Text | Print | Product List | Glossary On
Versions: 1 2 3 4 5 6 7 8 9 10 11 12 13 14 15 16 17 18 19 20 21 22 23 24 25 26 27 28 29 30 31 32 33 34 35 36 37 38 39 40 41 42 43 44 45 46 47 48 49 50
000
NZUS59 KLOT 011806
HRRLOT

CHICAGO AREA WEATHER ROUNDUP
NATIONAL WEATHER SERVICE CHICAGO/ROMEOVILLE IL
100 PM CDT WED OCT 01 2014

NOTE: "FAIR" INDICATES FEW OR NO CLOUDS BELOW 12,000 FEET WITH NO
SIGNIFICANT WEATHER AND/OR OBSTRUCTIONS TO VISIBILITY.

* THESE STATIONS ARE NOT UNDER NWS QUALITY CONTROL. THEY ALSO MAY NOT
  REPORT WEATHER SUCH AS PRECIPITATION OR FOG.

ILZ005-006-012>014-019>023-011900-
NORTHEAST ILLINOIS

CITY           SKY/WX    TMP DP  RH WIND       PRES   REMARKS
OHARE          MOSUNNY   65  49  56 S8        29.98F
6HR MIN TEMP:  50; 6HR MAX TEMP:  65;

MIDWAY         MOSUNNY   68  51  54 S8        29.98F
6HR MIN TEMP:  53; 6HR MAX TEMP:  68;

AURORA         MOSUNNY   69  52  54 E13       29.97F
6HR MIN TEMP:  49; 6HR MAX TEMP:  69;

LANSING*       SUNNY     66  52  60 SE8G17    29.99F
JOLIET*        MOSUNNY   69  53  55 E10       29.97F
WAUKEGAN       SUNNY     59  50  72 SE15      29.99S
6HR MIN TEMP:  55; 6HR MAX TEMP:  60;

DUPAGE AIRPORT SUNNY     68  51  54 SE9       29.97F
6HR MIN TEMP:  49; 6HR MAX TEMP:  68;

WHEELING       SUNNY     67  50  54 SE8       29.99F
6HR MIN TEMP:  55; 6HR MAX TEMP:  67;

KANKAKEE*      SUNNY     71  55  56 SE6       29.98F
MORRIS*        SUNNY     71  55  57 SE8       29.95F
LEWIS AIRPORT* MOSUNNY   68  51  53 S8        29.97F
NORTHERLY IS     N/A     62  52  69 E12         N/A
$$

WIZ051-052-058>065-066-070>072-011900-
SOUTHEAST WISCONSIN

CITY           SKY/WX    TMP DP  RH WIND       PRES   REMARKS
MILWAUKEE      MOSUNNY   61  50  67 SE20      29.99F
6HR MIN TEMP:  55; 6HR MAX TEMP:  62;

KENOSHA*       MOSUNNY   62  51  67 SE15      30.00S
RACINE*        PTSUNNY   62  50  64 S16G22    30.01F
BURLINGTON     SUNNY     65  49  55 SE6       29.97S
WAUKESHA       SUNNY     63  48  59 SE12      29.98F
WEST BEND      SUNNY     63  48  59 SE13      29.97S
$$

INZ001>003-010>013-019-020-011900-
NORTHWEST INDIANA

CITY           SKY/WX    TMP DP  RH WIND       PRES   REMARKS
GARY*          MOSUNNY   68  50  52 SE9       30.00F
MICHIGAN CITY* NOT AVBL
RENSSELAER*    NOT AVBL
VALPARAISO     SUNNY     65  49  56 E9        30.01F
$$

LMZ740>746-011900-
SOUTHERN LAKE MICHIGAN

STATION/POSITION TIME  SKY/WX   TEMP WIND        PRES    VSBY
                                AIR  DIR/SP/G
                 (UTC)          (F)  (DEG/KT/KT) (MB)    (MI)
HARRISON CRIB    1800            59  120/ 13/ 16   N/A
BURNHAM HARBOR   1800            63  100/  9/ 11   N/A
CALUMET HARBOR   1800            63   80/  8/ 10 1014.4F
BURNS HARBOR     NOT AVBL
MICHIGAN CITY    1800            63  130/  6/ 10   N/A
$$

ABBREVIATIONS USED IN REMARKS
   TC - TEMPERATURE IN CELSIUS
  WCI - WIND CHILL INDEX
   HX - HEAT INDEX
  VSB - VISIBILITY
$$



USA.gov is the U.S. government's official web portal to all federal, state and local government web resources and services.